Regional Weather Roundup
Issued by NWS

Home | Current Version | Previous Version | Text Only | Print | Product List | Glossary Off
Versions: 1 2 3 4 5 6 7 8 9 10 11 12 13 14 15 16 17 18 19 20 21 22 23 24 25 26 27 28 29 30 31 32 33 34 35 36 37 38 39 40 41 42 43 44 45 46 47 48 49 50

000
ASUS43 KOAX 261710
RWRNE

WEATHER ROUNDUP FOR NEBRASKA
NATIONAL WEATHER SERVICE OMAHA NE
1200 PM CDT SUN MAR 26 2017

NOTES: SATELLITE DATA IS BEING USED TO AUGMENT CLOUD COVER ABOVE
       12000 FEET.
       "FAIR" INDICATES FEW OR NO CLOUDS BELOW 12,000 FEET WITH NO
       SIGNIFICANT WEATHER AND/OR OBSTRUCTIONS TO VISIBILITY.

  * THESE STATIONS DO NOT REPORT WEATHER SUCH AS RAIN...SNOW OR FOG.

NEZ001>004-019>022-054>056-261800-
NEBRASKA PANHANDLE

CITY           SKY/WX    TMP DP  RH WIND       PRES   REMARKS
SCOTTSBLUFF    PTSUNNY   52  32  46 N14       29.91R
ALLIANCE       CLOUDY    49  34  56 N5        29.89R
CHADRON        CLOUDY    48  36  63 N15       29.92R
KIMBALL        CLOUDY    47  38  72 N17       29.90R
SIDNEY         CLOUDY    45  37  73 S6        29.91R
$$

NEZ057>060-069>072-079>082-261800-
SOUTHWEST NEBRASKA

CITY           SKY/WX    TMP DP  RH WIND       PRES   REMARKS
NORTH PLATTE   CLOUDY    44  39  82 VRB3      29.92R
IMPERIAL       LGT RAIN  42  39  89 NE6       29.90R
LEXINGTON      CLOUDY    42  39  89 E5        29.92S
MCCOOK         CLOUDY    42  40  92 N6        29.91R
OGALLALA       CLOUDY    49  44  80 SW7       29.90R
$$

NEZ005>010-023>029-035>040-094-261800-
NORTH CENTRAL NEBRASKA

CITY           SKY/WX    TMP DP  RH WIND       PRES   REMARKS
VALENTINE      PTSUNNY   49  38  65 NE9       29.90R
AINSWORTH      CLOUDY    42  40  92 CALM      29.91S
BROKEN BOW     CLOUDY    46  42  86 CALM      29.91R
O`NEILL        CLOUDY    41  41  99 CALM      29.94R FOG
ORD            CLOUDY    43  38  82 CALM      29.92S
THEDFORD       PTSUNNY   47  41  80 CALM      29.90S
$$

NEZ041-046>049-061>064-073>077-083>087-261800-
SOUTH CENTRAL NEBRASKA

CITY           SKY/WX    TMP DP  RH WIND       PRES   REMARKS
GRAND ISLAND   CLOUDY    43  42  97 NW3       29.93F
AURORA         CLOUDY    42  42  98 NW5       29.93F FOG
HASTINGS       CLOUDY    45  41  86 N3        29.93F
HEBRON         CLOUDY    44  41  89 CALM      29.93S
HOLDREGE       CLOUDY    45  40  85 CALM      29.91S
KEARNEY *      CLOUDY    45  39  81 CALM      29.92F
YORK           PTSUNNY   43  43 100 NW5       29.94S FOG
$$

NEZ011>018-030>034-042>045-261800-
NORTHEAST NEBRASKA

CITY           SKY/WX    TMP DP  RH WIND       PRES   REMARKS
NORFOLK        CLOUDY    41  38  89 NW6       29.93S FOG
ALBION         CLOUDY    44  39  85 NW3       29.93S
BLAIR          CLOUDY    43  40  88 N6        29.92R
FREMONT        CLOUDY    43  40  89 NW5       29.94R
TEKAMAH        CLOUDY    44  39  82 N7        29.93S
WAYNE          CLOUDY    41  39  93 N5        29.94R
$$

NEZ050>053-065>068-078-088>093-261800-
SOUTHEAST NEBRASKA

CITY           SKY/WX    TMP DP  RH WIND       PRES   REMARKS
LINCOLN        CLOUDY    44  40  85 NW3       29.96R
OMAHA EPPLEY   CLOUDY    44  38  79 NW7       29.94R
BEATRICE       CLOUDY    44  42  94 N5        29.93F FOG
FALLS CITY     CLOUDY    44  40  85 NW9       29.94R
NEBRASKA CITY  CLOUDY    43  41  92 NW5       29.94S
PLATTSMOUTH    CLOUDY    42  38  85 W6        29.94R
$$

NEZ044-045-051>053-067-261800-
OMAHA AREA

CITY           SKY/WX    TMP DP  RH WIND       PRES   REMARKS
OMAHA EPPLEY   CLOUDY    44  38  79 NW7       29.94R
BLAIR          CLOUDY    43  40  88 N6        29.92R
FREMONT        CLOUDY    43  40  89 NW5       29.94R
MILLARD        CLOUDY    45  41  85 NW5       29.94R
OFFUTT AFB     CLOUDY    44  39  83 W5        29.93S
PLATTSMOUTH    CLOUDY    42  38  85 W6        29.94R
WAHOO          CLOUDY    43  39  88 N3        29.94S
$$




USA.gov is the U.S. government's official web portal to all federal, state and local government web resources and services.